McKinney, TX

12:31 PM CDT on October 16, 2019 (GMT -0500)
Collin County Regional

Weather History for KTKI - September, 2019

Change the Weather History Date:

Sunday, September 22, 2019

  Actual Average (KADS) Record (KADS)
Temperature  
Mean Temperature 83 °F -  
Max Temperature 93 °F 84 °F 98 °F (2005)
Min Temperature 75 °F 65 °F 51 °F (1999)
Cooling Degree Days 18    
Growing Degree Days 33 (Base 50)    
Moisture  
Dew Point 68 °F    
Average Humidity 65    
Maximum Humidity 84    
Minimum Humidity 42    
Precipitation  
Precipitation 0.00 in - - ()
Sea Level Pressure  
Sea Level Pressure 29.98 in    
Wind  
Wind Speed 12 mph ()    
Max Wind Speed 22 mph    
Max Gust Speed 30 mph    
Visibility 10.0 miles    
Events      
Averages and records for this station are not official NWS values.
T = Trace of Precipitation, MM = Missing Value Source: Averaged Metar Reports

Daily Weather History Graph

Daily Weather History Graph

Search for Another Location

Airport or City:

Astronomy

Sep. 22, 2019 Rise Set
Actual Time 7:14 AM CDT 7:23 PM CDT
Civil Twilight 6:49 AM CDT 7:48 PM CDT
Nautical Twilight 6:20 AM CDT 8:16 PM CDT
Astronomical Twilight 5:51 AM CDT 8:45 PM CDT
Moon 12:23 AM CDT (9/22) 3:00 PM CDT (9/22)
Length of Visible Light 12h 58m
Length of Day
12h 08m
Last Quarter, 44% of the Moon is Illuminated
Sep 22
Last Quarter
Sep 28
New
Oct 5
First Quarter
Oct 13
Full
Oct 21
Last Quarter

Hourly Weather History & Observations

Time (CDT) Temp. Heat Index Dew Point Humidity Pressure Visibility Wind Dir Wind Speed Gust Speed Precip Events Conditions
12:53 AM 81.0 °F 84.1 °F 69.1 °F 67% 29.97 in 10.0 mi SSE 12.7 mph - N/A   Clear
1:53 AM 80.1 °F 82.9 °F 69.1 °F 69% 29.97 in 10.0 mi South 13.8 mph - N/A   Clear
2:53 AM 78.1 °F - 69.1 °F 74% 29.99 in 10.0 mi South 12.7 mph - N/A   Clear
3:53 AM 77.0 °F - 69.1 °F 76% 29.99 in 10.0 mi South 12.7 mph - N/A   Clear
4:53 AM 75.9 °F - 69.1 °F 79% 29.99 in 10.0 mi South 12.7 mph - N/A   Partly Cloudy
5:10 AM 75.9 °F - 69.1 °F 79% 30.01 in 10.0 mi South 11.5 mph - N/A   Mostly Cloudy
5:53 AM 75.9 °F - 69.1 °F 79% 29.99 in 10.0 mi South 12.7 mph - N/A   Mostly Cloudy
6:09 AM 75.9 °F - 70.0 °F 82% 30.01 in 10.0 mi South 12.7 mph - N/A   Scattered Clouds
6:44 AM 75.0 °F - 70.0 °F 84% 30.01 in 10.0 mi South 11.5 mph - N/A   Mostly Cloudy
6:53 AM 75.0 °F - 70.0 °F 84% 30.00 in 10.0 mi South 10.4 mph - N/A   Mostly Cloudy
7:48 AM 75.2 °F - 69.8 °F 83% 30.02 in 10.0 mi South 10.4 mph - N/A   Scattered Clouds
7:53 AM 75.9 °F - 70.0 °F 82% 30.01 in 10.0 mi South 12.7 mph - N/A   Scattered Clouds
8:19 AM 77.0 °F - 70.0 °F 79% 30.02 in 10.0 mi South 12.7 mph - N/A   Mostly Cloudy
8:53 AM 78.1 °F - 70.0 °F 76% 30.00 in 10.0 mi South 16.1 mph - N/A   Mostly Cloudy
9:45 AM 81.0 °F 84.4 °F 70.0 °F 69% 30.01 in 10.0 mi South 20.7 mph 29.9 mph N/A   Scattered Clouds
9:53 AM 81.0 °F 84.4 °F 70.0 °F 69% 29.99 in 10.0 mi South 21.9 mph 27.6 mph N/A   Partly Cloudy
10:25 AM 82.9 °F 86.5 °F 69.1 °F 63% 30.03 in 10.0 mi South 17.3 mph 23.0 mph N/A   Mostly Cloudy
10:53 AM 84.9 °F 88.2 °F 68.0 °F 57% 30.01 in 10.0 mi SSW 16.1 mph 25.3 mph N/A   Mostly Cloudy
11:00 AM 84.0 °F 87.0 °F 68.0 °F 58% 30.03 in 10.0 mi SSW 18.4 mph 25.3 mph N/A   Mostly Cloudy
11:53 AM 87.1 °F 90.6 °F 68.0 °F 53% 30.00 in 10.0 mi SW 10.4 mph - N/A   Mostly Cloudy
12:53 PM 88.0 °F 90.3 °F 66.0 °F 48% 29.98 in 10.0 mi SSW 18.4 mph - N/A   Mostly Cloudy
1:53 PM 91.9 °F 94.5 °F 66.0 °F 42% 29.95 in 10.0 mi SSW 16.1 mph 23.0 mph N/A   Scattered Clouds
2:53 PM 91.0 °F 93.0 °F 64.9 °F 42% 29.94 in 10.0 mi South 15.0 mph - N/A   Mostly Cloudy
3:53 PM 91.0 °F 93.0 °F 64.9 °F 42% 29.92 in 10.0 mi South 17.3 mph - N/A   Overcast
4:53 PM 91.0 °F 93.8 °F 66.0 °F 44% 29.91 in 10.0 mi SSE 15.0 mph - N/A   Mostly Cloudy
5:53 PM 91.0 °F 93.8 °F 66.0 °F 44% 29.91 in 10.0 mi SSE 13.8 mph - N/A   Partly Cloudy
6:53 PM 88.0 °F 89.6 °F 64.9 °F 46% 29.91 in 10.0 mi SSE 10.4 mph - N/A   Clear
7:53 PM 84.9 °F 87.6 °F 66.9 °F 55% 29.93 in 10.0 mi SE 8.1 mph - N/A   Partly Cloudy
8:53 PM 82.9 °F 85.4 °F 66.9 °F 58% 29.94 in 10.0 mi SSE 6.9 mph - N/A   Clear
9:53 PM 82.0 °F 84.5 °F 66.9 °F 60% 29.95 in 10.0 mi SSE 8.1 mph - N/A   Clear
10:53 PM 82.0 °F 84.5 °F 66.9 °F 60% 29.96 in 10.0 mi SSE 8.1 mph - N/A   Mostly Cloudy
11:53 PM 82.0 °F 85.5 °F 69.1 °F 65% 29.97 in 10.0 mi South 12.7 mph - N/A   Partly Cloudy